Location: Kellogg
(38.0159°N, 90.0546°W)
Time: 16:18:31
(UTC+00:00)

Transit 2A - Pass Details

Date: 19 September 2024
Orbit: 590 x 960 km, 66.7° (Epoch: 07 October)

Event Time Altitude Azimuth Distance (km) Brightness Sun altitude
Rises 22:12:19 0° 177° (S) 3,349 9.5 20.4°
Reaches altitude 10° 22:14:56 10° 167° (SSE) 2,477 8.7 19.9°
Maximum altitude 22:19:56 31° 107° (ESE) 1,541 7.3 18.9°
Drops below altitude 10° 22:25:15 10° 48° (NE) 2,655 8.3 17.9°
Sets 22:28:08 0° 39° (NE) 3,629 9.0 17.3°
